Temperature
17 16 16 16 16 16 16 16 16 16 16 16 16 16 16 16 16 16 15 15 15 15 15 15 15 15 15 15 15 15 15 15 16 16 16 16 15 15 15 15 15 15 15
17 17 16 16 16 16 16 16 16 16 16 16 16 16 16 16 16 15 15 15 15 15 15 14 14 14 14 15 15 15 15 15 15 15 15 15 14 14 14 15 15 15 15
16 16 16 16 16 16 16 16 16 16 16 16 16 16 16 16 16 15 15 15 15 15 15 14 14 14 14 14 14 14 14 14 14 14 15 15 14 14 14 14 14 14 15
17 16 16 16 16 16 16 16 16 16 16 16 16 16 15 15 15 15 15 15 15 15 14 14 14 14 14 13 13 14 14 14 14 14 14 14 14 14 13 13 14 14 14
17 17 17 16 16 16 16 16 16 16 16 16 15 15 15 15 15 15 15 15 14 14 14 14 13 13 13 13 13 13 13 13 13 13 13 13 13 13 13 13 13 13 13
17 16 16 16 16 16 16 16 15 15 15 15 15 15 15 15 15 14 14 14 14 13 13 13 13 13 13 13 13 12 12 12 12 12 12 12 12 12 12 12 12 12 12
16 16 16 16 15 15 15 15 15 15 15 14 14 14 14 14 14 14 13 13 13 12 12 12 12 12 12 11 11 11 11 11 11 11 11 11 11 11 11 11 10 10 11
16 16 15 15 15 15 14 14 14 14 14 13 13 13 13 13 13 13 13 12 12 11 11 11 11 11 11 11 11 10 10 10 10 10 10 10 10 10 10 9 9 9 10
15 14 14 14 14 14 13 13 13 13 13 12 12 12 12 12 12 12 11 11 11 10 10 10 10 10 10 10 9 9 9 9 9 9 9 9 9 9 9 8 8 8 9
14 13 13 13 13 13 13 12 12 12 12 11 11 11 11 11 11 11 10 10 10 9 9 9 9 9 9 9 8 8 7 7 7 8 7 8 7 7 7 7 7 7 8
13 13 12 12 12 12 12 12 11 11 11 10 10 10 10 10 10 10 10 9 9 9 9 8 8 8 8 7 7 7 6 7 7 7 7 7 7 7 7 6 6 6 6
12 12 12 11 11 11 11 11 10 10 10 10 9 9 9 9 9 9 9 8 8 7 7 7 7 7 7 7 6 6 6 6 6 6 6 7 7 6 6 6 5 5 5
11 11 11 11 10 10 10 10 10 10 10 10 10 9 9 8 7 7 7 7 7 7 6 6 6 6 6 5 5 5 5 5 5 5 6 6 5 5 5 5 5 5 5
11 10 10 10 10 10 9 10 10 10 10 9 9 9 8 7 6 6 6 6 5 6 5 5 5 5 5 5 5 5 4 4 4 4 4 4 4 4 4 4 4 4 4
10 10 10 9 9 9 9 9 9 9 8 8 7 7 7 6 6 6 5 5 5 5 5 5 5 5 5 5 4 4 3 3 3 3 3 3 3 3 3 3 3 3 3
9 9 10 9 9 9 8 8 8 8 7 7 7 6 5 5 5 5 4 4 4 4 4 4 4 4 4 3 3 3 2 2 2 2 2 2 2 2 2 2 2 2 3
9 9 9 9 9 8 8 8 7 7 6 6 6 5 5 4 4 4 4 4 3 3 3 4 3 3 2 2 2 1 1 1 1 1 1 1 1 1 1 1 1 2 2
8 8 8 8 8 8 8 7 7 7 6 5 4 4 4 3 3 3 3 3 3 3 3 3 2 2 1 1 1 1 0 0 0 0 0 0 0 0 0 1 1 1 1
8 8 7 7 7 7 7 7 6 6 5 5 4 3 3 3 3 2 2 2 3 3 2 2 1 1 1 0 0 -0 -0 -0 -0 -0 -0 -0 -0 -0 -0 -0 0 0 0
7 7 7 7 7 6 6 6 5 5 5 4 4 3 3 3 3 3 2 2 2 1 1 1 1 0 0 -0 -0 -1 -1 -1 -1 -1 -1 -1 -1 -1 -1 -1 -0 -0 0
6 6 6 6 6 5 5 5 5 4 4 4 3 2 2 2 2 2 2 1 1 1 0 0 0 -0 -0 -0 -1 -1 -1 -1 -1 -1 -1 -1 -1 -1 -1 -1 -1 -0 -0
6 6 5 5 5 4 4 4 4 4 3 3 3 3 2 2 2 1 1 1 0 0 -0 -0 -0 -1 -1 -1 -1 -1 -1 -1 -2 -2 -2 -2 -1 -1 -1 -1 -1 -1 -0
5 5 5 4 4 4 4 4 4 3 3 3 2 2 2 1 1 1 0 0 -0 -0 -1 -1 -1 -1 -1 -1 -2 -2 -2 -2 -2 -2 -2 -1 -1 -1 -1 -1 -1 -1 -0
5 5 5 4 4 4 4 3 3 3 2 2 2 2 1 1 1 0 -0 -0 -1 -1 -1 -1 -1 -1 -2 -2 -2 -2 -2 -2 -2 -2 -2 -1 -1 -1 -1 -1 -1 -1 -0
4 4 4 4 4 3 3 3 3 2 2 2 1 1 1 1 0 -0 -0 -1 -1 -1 -1 -1 -1 -2 -2 -2 -2 -2 -2 -2 -1 -1 -1 -1 -1 -1 -1 -1 -1 -1 -0
4 4 3 3 3 3 3 2 2 2 2 1 1 1 0 0 0 -0 -1 -1 -1 -1 -1 -1 -2 -2 -2 -2 -2 -2 -1 -1 -1 -1 -1 -1 -1 -1 -1 -1 -1 -1 -0
Wind_Speed
12 12 11 11 11 10 9 8 7 7 7 7 7 7 7 7 7 7 7 6 7 6 6 6 7 6 5 5 5 6 6 6 7 7 5 4 5 8 6 8 10 11 12
13 12 11 11 10 10 9 8 7 7 6 6 7 7 7 7 7 8 8 7 7 7 7 6 7 6 6 6 5 6 6 6 8 9 8 7 7 8 8 8 10 11 12
13 12 12 11 11 10 9 7 6 5 5 5 5 6 5 5 6 6 6 6 6 6 5 5 6 6 6 6 6 6 6 6 7 8 9 7 7 7 7 9 11 10 13
12 12 11 10 9 8 7 7 6 5 4 4 4 3 3 3 4 4 4 4 4 3 3 3 3 3 4 5 6 6 6 7 7 8 9 8 7 7 7 9 9 8 9
11 11 10 8 8 8 7 7 6 5 5 4 4 3 2 1 0 1 2 2 2 2 1 1 2 3 4 3 4 4 5 6 7 7 8 8 7 6 7 7 9 10 10
11 10 9 8 8 8 7 7 7 6 6 5 5 4 4 4 6 6 2 1 1 1 2 2 2 3 2 2 3 4 4 6 6 7 7 8 8 7 6 8 10 11 11
10 10 10 9 9 8 8 9 8 8 7 7 7 7 7 8 9 7 5 3 3 3 3 2 2 3 3 3 2 2 3 3 4 7 8 9 8 7 8 10 10 11 12
11 11 10 10 11 10 10 10 9 8 9 9 9 9 10 10 11 9 5 4 5 5 5 4 4 4 7 7 6 5 5 4 4 5 6 7 8 8 8 10 12 13 14
12 11 11 11 12 11 11 10 10 10 10 10 10 10 10 9 11 10 6 4 5 5 4 5 4 5 8 8 6 6 6 6 4 5 6 9 11 11 10 9 11 11 12
12 12 12 12 12 12 11 11 10 10 10 10 10 9 9 9 11 11 8 3 3 2 2 3 7 7 7 8 7 7 7 8 9 9 8 10 11 12 12 10 10 11 12
13 13 13 13 12 12 11 10 10 10 10 9 9 9 9 9 10 11 11 5 4 3 3 3 4 7 6 6 8 7 7 9 11 11 10 10 9 8 8 8 8 9 11
14 14 14 13 12 12 11 10 9 9 9 8 7 6 6 7 8 8 9 8 8 5 5 5 5 6 7 9 7 5 8 11 10 9 9 9 9 8 8 9 11 12 13
15 15 14 13 11 10 10 9 8 6 5 5 4 4 4 4 5 6 4 2 3 5 5 4 4 7 10 9 6 7 10 9 8 9 10 9 9 10 10 10 12 12 14
15 14 12 12 11 9 7 6 5 4 4 3 3 2 2 3 5 6 5 3 2 4 7 5 10 12 10 9 8 6 6 7 8 9 10 10 10 10 10 10 11 11 12
13 12 11 11 10 9 9 9 8 10 8 6 5 5 5 5 8 9 8 8 8 8 10 10 8 7 7 7 7 7 8 8 8 8 9 10 10 10 10 10 10 11 12
11 10 9 8 8 8 9 10 15 12 14 15 14 10 9 10 6 6 6 6 7 10 10 7 7 7 8 8 9 9 9 8 9 9 10 10 10 10 11 11 11 12 12
10 8 7 7 6 5 5 6 7 8 11 12 12 12 10 7 6 6 7 9 10 11 7 7 7 8 8 8 9 9 9 9 9 9 10 10 10 10 11 11 12 12 12
9 8 7 6 5 5 4 3 3 3 4 5 8 8 6 3 1 4 9 11 6 3 7 8 8 8 8 9 9 9 9 10 9 10 10 10 10 10 11 11 11 13 13
8 7 6 6 5 5 4 4 4 4 3 3 2 5 5 5 8 7 8 7 8 8 8 8 8 8 8 9 9 9 10 10 10 10 10 11 10 11 11 12 12 15 14
8 8 5 5 5 5 4 4 4 3 3 3 4 6 6 6 5 4 5 7 7 8 8 8 8 9 9 9 9 9 10 10 11 10 10 11 11 11 12 14 13 13 13
7 7 5 5 5 5 4 4 4 4 4 4 4 6 6 7 6 7 7 7 8 8 9 9 9 9 9 9 9 10 11 10 10 10 11 11 12 12 12 12 13 13 13
6 6 5 6 5 5 4 4 4 4 4 4 4 3 2 5 7 7 7 8 8 8 8 8 9 9 9 9 10 11 11 11 11 11 12 13 13 13 13 13 13 13 13
6 6 6 5 5 4 2 4 4 4 4 5 5 6 6 6 7 7 8 8 8 8 9 9 9 9 10 11 12 11 11 11 12 13 14 14 13 13 13 13 15 16 14
6 5 5 4 4 3 4 4 4 4 5 5 5 5 6 6 7 7 8 8 8 9 10 10 10 12 14 13 12 12 12 15 18 17 16 14 14 13 13 13 14 15 15
6 5 5 4 4 4 4 4 4 4 4 5 5 5 6 6 7 7 7 8 9 9 11 11 10 12 15 16 15 16 19 21 19 16 16 13 14 14 14 14 14 15 15
5 5 4 4 3 3 3 3 4 4 4 4 5 5 6 6 6 7 7 8 9 9 10 11 13 15 16 14 17 21 21 19 19 19 17 13 13 13 14 13 16 14 15
Wind_Direction
182 187 189 188 187 188 195 197 197 203 199 205 207 209 211 211 210 215 230 221 226 229 230 231 235 255 254 251 245 249 251 256 264 270 261 242 240 265 263 257 258 253 245
183 185 189 189 187 189 195 201 202 208 212 211 214 216 218 218 216 219 226 225 226 231 234 238 242 237 238 257 259 256 256 260 263 272 275 263 240 248 257 262 265 260 264
181 183 185 188 187 192 195 197 198 202 210 214 215 216 218 221 221 225 229 230 232 234 235 237 244 247 246 252 257 262 263 258 258 267 270 277 271 263 263 261 264 264 268
180 182 182 185 184 186 184 181 183 188 190 189 190 196 207 218 223 226 224 226 224 221 225 233 247 253 256 262 258 262 268 271 267 267 273 275 272 273 272 273 274 265 267
178 178 173 171 170 168 165 165 166 167 167 159 154 150 157 172 63 232 214 204 197 192 167 132 80 62 34 346 300 289 279 269 268 268 271 274 275 281 278 281 281 284 276
169 165 155 153 155 153 152 148 142 136 129 125 123 115 98 76 57 47 25 89 102 118 110 101 117 96 80 78 15 345 323 289 283 280 277 279 283 286 289 286 287 285 283
147 140 138 138 135 132 132 129 125 120 115 108 102 95 86 64 51 55 49 74 76 68 66 49 30 47 23 351 321 255 275 270 278 285 285 286 290 297 299 289 283 282 282
126 125 126 127 121 117 115 113 112 109 106 102 97 93 87 67 51 51 45 83 76 68 59 48 39 32 24 0 338 325 312 302 288 281 295 298 300 304 293 285 284 279 274
113 115 118 117 114 113 111 109 108 107 104 102 97 93 88 71 47 38 15 81 79 70 59 52 41 43 38 358 329 321 314 308 263 234 263 275 281 280 278 282 280 279 280
107 105 104 105 108 109 109 109 107 106 105 103 96 89 86 76 53 36 9 49 65 54 69 96 75 48 28 356 332 321 313 316 315 303 275 261 265 262 241 250 272 280 284
106 105 103 104 106 107 107 107 111 109 105 103 101 95 85 75 69 45 20 23 13 357 349 340 62 54 8 335 312 311 323 311 298 290 287 285 279 276 271 265 274 282 287
107 105 105 106 107 107 107 107 109 115 118 115 111 107 101 88 68 63 47 34 358 347 334 341 20 13 324 300 298 324 303 288 286 292 295 296 299 301 304 303 296 287 281
107 105 104 103 102 107 112 117 121 123 120 118 118 110 99 91 108 124 120 92 355 335 341 10 315 286 287 276 235 258 279 289 304 304 302 305 308 309 306 298 291 285 281
106 106 106 106 103 95 93 95 93 87 89 91 78 68 72 69 35 17 359 353 288 310 329 288 234 238 252 276 290 280 299 320 319 309 310 311 310 307 303 305 305 304 299
108 109 109 104 99 91 75 53 61 54 44 37 41 34 21 46 43 23 4 0 350 348 323 304 311 323 322 328 329 329 325 323 318 317 314 312 309 307 306 307 304 303 299
111 110 110 112 111 112 106 90 60 69 70 64 51 45 68 65 57 33 17 351 321 312 307 319 334 335 333 332 329 327 327 328 325 318 314 311 309 308 308 307 305 302 300
100 101 105 107 111 111 114 117 115 99 88 83 77 66 62 61 44 9 335 313 288 287 308 339 339 335 331 328 325 323 322 322 320 316 314 313 312 311 309 308 307 305 303
101 95 93 93 90 88 87 89 93 108 119 107 109 108 108 106 32 321 308 304 311 310 344 344 339 336 332 329 327 326 324 322 320 317 315 313 312 310 308 307 305 305 304
89 88 84 87 87 84 82 79 71 63 61 59 77 128 168 204 207 236 286 342 353 349 348 343 339 336 332 330 328 325 322 319 318 317 315 315 314 312 307 305 303 301 298
84 68 68 86 85 82 73 64 59 51 48 40 28 21 1 339 347 354 347 355 347 346 343 340 338 333 330 327 325 324 322 319 318 317 317 315 313 310 306 303 301 300 298
101 102 102 84 75 69 65 59 53 42 35 23 37 57 348 333 351 354 350 352 347 343 340 337 332 331 331 329 327 324 321 319 320 320 318 314 311 307 304 301 299 297 296
98 95 86 80 79 65 57 59 53 45 34 18 13 66 197 324 357 356 352 348 346 341 337 334 330 332 334 333 327 323 320 319 322 323 317 312 308 304 303 301 300 299 298
96 96 92 87 85 97 70 57 46 35 24 15 9 3 2 0 354 355 349 345 343 339 339 335 330 332 338 333 326 322 320 326 327 320 312 306 304 303 302 301 300 300 299
93 92 91 89 82 76 64 53 41 31 19 11 6 2 360 356 350 352 346 345 342 339 339 334 331 333 335 332 327 325 333 334 325 312 306 301 300 299 299 299 299 299 300
96 91 88 82 74 65 55 47 38 26 16 8 6 0 356 352 350 350 347 345 340 338 338 336 337 337 335 333 336 337 337 328 318 313 308 299 296 297 298 299 301 303 303
94 89 83 79 71 59 50 42 35 24 17 13 8 1 354 351 351 349 346 344 340 338 337 336 337 336 334 338 343 337 331 325 320 314 307 298 296 300 307 307 307 307 307
Height
1514 1518 1522 1525 1529 1532 1536 1539 1541 1543 1545 1547 1548 1549 1550 1551 1552 1553 1554 1554 1555 1555 1556 1556 1556 1557 1558 1559 1559 1559 1559 1559 1559 1559 1559 1558 1556 1556 1557 1556 1556 1555 1555
1513 1516 1520 1523 1526 1530 1533 1536 1539 1541 1543 1544 1546 1547 1548 1549 1550 1550 1551 1552 1552 1552 1553 1553 1554 1554 1554 1554 1555 1555 1555 1555 1555 1555 1555 1555 1553 1551 1551 1550 1551 1551 1551
1512 1515 1518 1521 1524 1527 1531 1534 1536 1538 1540 1542 1543 1544 1546 1546 1547 1547 1548 1548 1549 1549 1549 1550 1550 1550 1550 1551 1550 1551 1551 1551 1550 1550 1550 1550 1549 1548 1547 1546 1545 1544 1544
1510 1513 1516 1519 1522 1525 1528 1531 1533 1535 1537 1539 1540 1541 1542 1543 1544 1544 1544 1545 1545 1545 1545 1545 1545 1545 1545 1546 1546 1546 1546 1546 1546 1545 1544 1544 1543 1543 1542 1541 1540 1539 1538
1508 1511 1514 1517 1520 1523 1525 1528 1530 1533 1535 1536 1537 1538 1539 1540 1541 1541 1541 1541 1541 1541 1541 1541 1541 1541 1541 1541 1542 1541 1541 1541 1540 1540 1539 1538 1538 1537 1536 1535 1534 1532 1531
1505 1509 1512 1515 1518 1520 1522 1525 1528 1530 1532 1533 1534 1536 1537 1537 1537 1538 1538 1538 1538 1538 1538 1538 1537 1537 1537 1537 1536 1536 1536 1536 1535 1534 1534 1533 1531 1530 1529 1528 1527 1526 1524
1503 1506 1509 1512 1515 1518 1521 1523 1526 1528 1530 1531 1532 1533 1534 1534 1534 1535 1535 1535 1535 1535 1535 1535 1535 1534 1533 1533 1532 1531 1531 1530 1529 1529 1528 1527 1525 1524 1522 1521 1520 1518 1516
1502 1505 1508 1511 1514 1517 1520 1522 1525 1526 1528 1529 1530 1531 1532 1532 1533 1533 1533 1533 1533 1533 1533 1532 1532 1531 1530 1529 1529 1528 1527 1526 1524 1522 1521 1520 1519 1517 1516 1514 1512 1510 1507
1502 1505 1508 1511 1514 1517 1519 1522 1525 1526 1528 1529 1530 1531 1531 1531 1532 1532 1532 1533 1532 1532 1531 1530 1529 1528 1526 1526 1525 1524 1522 1521 1519 1517 1515 1514 1512 1510 1509 1507 1506 1505 1502
1504 1507 1509 1512 1515 1518 1520 1523 1525 1527 1528 1530 1530 1531 1531 1531 1532 1532 1532 1532 1532 1531 1530 1529 1527 1525 1524 1522 1521 1520 1519 1517 1515 1513 1510 1508 1506 1505 1503 1501 1500 1499 1496
1505 1508 1511 1514 1518 1520 1522 1524 1526 1528 1529 1530 1531 1532 1532 1532 1532 1532 1531 1531 1531 1530 1530 1529 1526 1523 1521 1519 1517 1516 1514 1512 1510 1508 1507 1505 1503 1501 1499 1497 1495 1493 1491
1508 1511 1514 1518 1521 1523 1524 1526 1528 1529 1531 1532 1532 1533 1533 1532 1532 1531 1530 1529 1529 1528 1527 1526 1523 1520 1517 1515 1514 1512 1510 1507 1506 1505 1503 1501 1499 1497 1495 1492 1489 1487 1484
1511 1514 1517 1520 1523 1525 1527 1529 1530 1532 1533 1534 1534 1535 1535 1534 1532 1530 1529 1528 1526 1525 1524 1521 1519 1516 1514 1512 1510 1508 1506 1505 1503 1501 1499 1497 1495 1492 1489 1486 1483 1480 1477
1515 1517 1520 1523 1526 1527 1530 1532 1533 1534 1534 1534 1535 1535 1534 1534 1532 1530 1529 1528 1525 1524 1522 1519 1516 1514 1512 1510 1508 1506 1504 1502 1499 1497 1495 1492 1489 1487 1484 1481 1478 1475 1472
1518 1521 1523 1526 1528 1529 1530 1531 1532 1532 1532 1533 1533 1533 1533 1532 1528 1527 1525 1524 1522 1520 1517 1516 1516 1514 1511 1509 1506 1504 1501 1498 1496 1493 1490 1487 1484 1482 1479 1476 1473 1470 1467
1521 1524 1526 1528 1529 1531 1531 1531 1531 1531 1531 1531 1530 1530 1529 1528 1526 1524 1523 1521 1519 1517 1515 1515 1513 1511 1508 1506 1503 1500 1498 1495 1492 1489 1486 1483 1480 1477 1474 1471 1468 1465 1461
1523 1525 1528 1529 1530 1532 1532 1532 1532 1531 1530 1530 1529 1528 1527 1526 1524 1523 1521 1519 1517 1515 1515 1513 1511 1509 1506 1503 1500 1497 1495 1492 1489 1486 1483 1479 1476 1473 1469 1466 1463 1460 1456
1525 1527 1528 1530 1531 1532 1532 1533 1533 1533 1532 1530 1528 1527 1526 1524 1523 1521 1519 1518 1517 1516 1514 1512 1509 1507 1504 1501 1498 1495 1491 1488 1485 1482 1479 1475 1472 1468 1465 1461 1458 1454 1450
1527 1528 1529 1530 1531 1532 1532 1532 1532 1532 1532 1531 1530 1528 1525 1524 1522 1520 1519 1518 1517 1515 1512 1510 1507 1504 1501 1498 1495 1492 1488 1485 1481 1478 1475 1471 1467 1464 1460 1456 1452 1448 1444
1527 1528 1529 1531 1531 1532 1532 1532 1532 1532 1531 1531 1530 1528 1526 1525 1524 1522 1520 1518 1516 1513 1511 1508 1505 1502 1499 1496 1492 1489 1485 1481 1478 1474 1470 1467 1463 1459 1455 1450 1447 1443 1439
1529 1529 1530 1531 1532 1532 1532 1532 1532 1531 1531 1530 1529 1526 1525 1524 1523 1521 1519 1517 1514 1512 1509 1506 1503 1500 1497 1493 1490 1486 1482 1478 1475 1471 1466 1462 1458 1454 1450 1445 1441 1437 1433
1530 1531 1531 1532 1532 1532 1532 1532 1532 1531 1531 1530 1529 1527 1524 1524 1522 1520 1518 1515 1513 1510 1507 1504 1501 1498 1494 1490 1487 1483 1479 1475 1471 1467 1462 1457 1453 1449 1444 1440 1436 1431 1427
1531 1532 1532 1532 1532 1531 1532 1532 1532 1531 1530 1530 1528 1527 1525 1523 1522 1519 1517 1514 1511 1508 1505 1502 1499 1496 1492 1488 1484 1480 1476 1472 1467 1462 1457 1452 1448 1444 1440 1435 1431 1426 1422
1532 1532 1532 1533 1533 1533 1533 1532 1532 1531 1530 1529 1528 1526 1525 1523 1521 1518 1515 1513 1509 1506 1503 1500 1497 1494 1490 1485 1481 1478 1474 1468 1463 1458 1453 1448 1444 1439 1435 1430 1426 1422 1417
1532 1533 1533 1533 1533 1533 1533 1532 1531 1530 1530 1528 1527 1526 1524 1522 1520 1517 1514 1511 1508 1505 1502 1498 1495 1491 1487 1483 1479 1475 1469 1464 1459 1454 1449 1444 1440 1435 1431 1426 1422 1417 1413
1533 1533 1533 1533 1533 1533 1532 1532 1531 1530 1529 1528 1527 1525 1523 1521 1518 1516 1513 1510 1507 1503 1500 1497 1493 1489 1485 1481 1476 1471 1466 1461 1456 1450 1445 1440 1436 1432 1428 1423 1419 1414 1409